Time,TemperatureF,DewpointF,PressureIn,WindDirection,WindDirectionDegrees,WindSpeedMPH,WindSpeedGustMPH,Humidity,HourlyPrecipIn,Conditions,Clouds,dailyrainin,SoftwareType,DateUTC
2013-08-25 00:00:00,82.8,72.0,30.01,ESE,117,1.0,1.0,70,0.00,,,0.00,Wunderground v.1.15,2013-08-25 05:00:00,
2013-08-25 00:05:00,82.7,72.3,30.01,ESE,117,0.0,1.0,71,0.00,,,0.00,Wunderground v.1.15,2013-08-25 05:05:00,
2013-08-25 00:14:00,82.3,72.0,30.01,East,93,0.0,1.0,71,0.00,,,0.00,Wunderground v.1.15,2013-08-25 05:14:00,
2013-08-25 00:25:00,81.8,71.9,30.01,East,94,0.0,0.0,72,0.00,,,0.00,Wunderground v.1.15,2013-08-25 05:25:00,
2013-08-25 00:34:00,81.2,72.1,30.02,East,93,0.0,0.0,74,0.00,,,0.00,Wunderground v.1.15,2013-08-25 05:34:00,
2013-08-25 00:40:00,80.9,71.8,30.02,East,93,0.0,0.0,74,0.00,,,0.00,Wunderground v.1.15,2013-08-25 05:40:00,
2013-08-25 00:44:00,80.7,72.0,30.02,East,93,0.0,0.0,75,0.00,,,0.00,Wunderground v.1.15,2013-08-25 05:44:00,
2013-08-25 00:54:00,80.4,71.3,30.02,NE,34,0.0,0.0,74,0.00,,,0.00,Wunderground v.1.15,2013-08-25 05:54:00,
2013-08-25 01:05:00,80.1,70.7,30.02,NE,34,0.0,0.0,73,0.00,,,0.00,Wunderground v.1.15,2013-08-25 06:05:00,
2013-08-25 01:10:00,80.0,71.0,30.02,NE,34,0.0,0.0,74,0.00,,,0.00,Wunderground v.1.15,2013-08-25 06:10:00,
2013-08-25 01:20:00,79.7,70.7,30.03,NE,34,0.0,0.0,74,0.00,,,0.00,Wunderground v.1.15,2013-08-25 06:20:00,
2013-08-25 01:30:00,79.3,70.3,30.03,NE,34,0.0,0.0,74,0.00,,,0.00,Wunderground v.1.15,2013-08-25 06:30:00,
2013-08-25 01:40:00,79.0,70.0,30.03,NE,34,0.0,0.0,74,0.00,,,0.00,Wunderground v.1.15,2013-08-25 06:40:00,
2013-08-25 01:50:00,78.7,70.1,30.03,NE,34,0.0,0.0,75,0.00,,,0.00,Wunderground v.1.15,2013-08-25 06:50:00,
2013-08-25 01:55:00,78.5,69.9,30.03,NE,34,0.0,0.0,75,0.00,,,0.00,Wunderground v.1.15,2013-08-25 06:55:00,
2013-08-25 02:05:00,78.3,70.1,30.03,NE,34,0.0,0.0,76,0.00,,,0.00,Wunderground v.1.15,2013-08-25 07:05:00,
2013-08-25 02:15:00,77.9,69.7,30.03,NE,34,0.0,0.0,76,0.00,,,0.00,Wunderground v.1.15,2013-08-25 07:15:00,
2013-08-25 02:20:00,77.7,69.5,30.03,NE,34,0.0,0.0,76,0.00,,,0.00,Wunderground v.1.15,2013-08-25 07:20:00,
2013-08-25 02:30:00,77.3,69.5,30.03,NE,34,0.0,0.0,77,0.00,,,0.00,Wunderground v.1.15,2013-08-25 07:30:00,
2013-08-25 02:40:00,77.0,69.6,30.03,NE,34,0.0,0.0,78,0.00,,,0.00,Wunderground v.1.15,2013-08-25 07:40:00,
2013-08-25 02:50:00,76.7,69.3,30.03,NE,34,0.0,0.0,78,0.00,,,0.00,Wunderground v.1.15,2013-08-25 07:50:00,
2013-08-25 03:00:00,76.4,69.4,30.03,NE,34,0.0,0.0,79,0.00,,,0.00,Wunderground v.1.15,2013-08-25 08:00:00,
2013-08-25 03:05:00,76.3,69.3,30.03,NE,34,0.0,0.0,79,0.00,,,0.00,Wunderground v.1.15,2013-08-25 08:05:00,
2013-08-25 03:15:00,76.0,69.4,30.03,NE,34,0.0,0.0,80,0.00,,,0.00,Wunderground v.1.15,2013-08-25 08:15:00,
2013-08-25 03:25:00,75.9,69.3,30.03,NE,34,0.0,0.0,80,0.00,,,0.00,Wunderground v.1.15,2013-08-25 08:25:00,
2013-08-25 03:35:00,75.7,69.5,30.03,NE,34,0.0,0.0,81,0.00,,,0.00,Wunderground v.1.15,2013-08-25 08:35:00,
2013-08-25 03:45:00,75.5,69.3,30.03,NE,34,0.0,0.0,81,0.00,,,0.00,Wunderground v.1.15,2013-08-25 08:45:00,
2013-08-25 03:55:00,75.2,69.0,30.03,NE,34,0.0,0.0,81,0.00,,,0.00,Wunderground v.1.15,2013-08-25 08:55:00,
2013-08-25 04:05:00,75.3,69.1,30.03,NE,34,0.0,0.0,81,0.00,,,0.00,Wunderground v.1.15,2013-08-25 09:05:00,
2013-08-25 04:15:00,75.3,69.4,30.03,NE,34,0.0,0.0,82,0.00,,,0.00,Wunderground v.1.15,2013-08-25 09:15:00,
2013-08-25 04:25:00,75.1,69.2,30.03,NE,34,0.0,0.0,82,0.00,,,0.00,Wunderground v.1.15,2013-08-25 09:25:00,
2013-08-25 04:35:00,74.9,69.0,30.03,NE,34,0.0,0.0,82,0.00,,,0.00,Wunderground v.1.15,2013-08-25 09:35:00,
2013-08-25 04:40:00,74.8,68.9,30.03,NE,34,0.0,0.0,82,0.00,,,0.00,Wunderground v.1.15,2013-08-25 09:40:00,
2013-08-25 04:50:00,74.7,69.2,30.03,NE,34,0.0,0.0,83,0.00,,,0.00,Wunderground v.1.15,2013-08-25 09:50:00,
2013-08-25 05:00:00,74.7,69.2,30.03,NE,34,0.0,0.0,83,0.00,,,0.00,Wunderground v.1.15,2013-08-25 10:00:00,
2013-08-25 05:05:00,74.7,69.2,30.03,NE,34,0.0,0.0,83,0.00,,,0.00,Wunderground v.1.15,2013-08-25 10:05:00,
2013-08-25 05:15:00,74.7,69.2,30.03,NE,34,0.0,0.0,83,0.00,,,0.00,Wunderground v.1.15,2013-08-25 10:15:00,
2013-08-25 05:25:00,74.6,69.1,30.03,NE,34,0.0,0.0,83,0.00,,,0.00,Wunderground v.1.15,2013-08-25 10:25:00,
2013-08-25 05:35:00,74.4,68.9,30.03,NE,34,0.0,0.0,83,0.00,,,0.00,Wunderground v.1.15,2013-08-25 10:35:00,
2013-08-25 05:45:00,74.3,68.8,30.03,NE,34,0.0,0.0,83,0.00,,,0.00,Wunderground v.1.15,2013-08-25 10:45:00,
2013-08-25 05:50:00,74.2,69.1,30.03,NE,34,0.0,0.0,84,0.00,,,0.00,Wunderground v.1.15,2013-08-25 10:50:00,
2013-08-25 06:00:00,74.3,69.1,30.04,NE,34,0.0,0.0,84,0.00,,,0.00,Wunderground v.1.15,2013-08-25 11:00:00,
2013-08-25 06:10:00,74.4,69.2,30.04,NE,34,0.0,0.0,84,0.00,,,0.00,Wunderground v.1.15,2013-08-25 11:10:00,
2013-08-25 06:15:00,74.3,69.1,30.04,NE,34,0.0,0.0,84,0.00,,,0.00,Wunderground v.1.15,2013-08-25 11:15:00,
2013-08-25 06:25:00,74.1,69.0,30.04,NE,34,0.0,0.0,84,0.00,,,0.00,Wunderground v.1.15,2013-08-25 11:25:00,
2013-08-25 06:35:00,74.0,68.9,30.04,NE,34,0.0,0.0,84,0.00,,,0.00,Wunderground v.1.15,2013-08-25 11:35:00,
2013-08-25 06:40:00,74.0,69.2,30.04,NE,34,0.0,0.0,85,0.00,,,0.00,Wunderground v.1.15,2013-08-25 11:40:00,
2013-08-25 06:50:00,74.1,69.0,30.04,NE,34,0.0,0.0,84,0.00,,,0.00,Wunderground v.1.15,2013-08-25 11:50:00,
2013-08-25 07:00:00,74.1,69.3,30.04,NE,34,0.0,0.0,85,0.00,,,0.00,Wunderground v.1.15,2013-08-25 12:00:00,
2013-08-25 07:10:00,74.2,69.1,30.04,NE,34,0.0,0.0,84,0.00,,,0.00,Wunderground v.1.15,2013-08-25 12:10:00,
2013-08-25 07:20:00,74.1,69.0,30.05,NE,34,0.0,0.0,84,0.00,,,0.00,Wunderground v.1.15,2013-08-25 12:20:00,
2013-08-25 07:30:00,74.2,69.1,30.05,NNE,25,0.0,0.0,84,0.00,,,0.00,Wunderground v.1.15,2013-08-25 12:30:00,
2013-08-25 07:40:00,74.4,69.2,30.05,NNE,24,0.0,0.0,84,0.00,,,0.00,Wunderground v.1.15,2013-08-25 12:40:00,
2013-08-25 07:50:00,74.6,69.4,30.05,North,1,0.0,0.0,84,0.00,,,0.00,Wunderground v.1.15,2013-08-25 12:50:00,
2013-08-25 08:00:00,75.2,69.7,30.06,NNW,345,1.0,1.0,83,0.00,,,0.00,Wunderground v.1.15,2013-08-25 13:00:00,
2013-08-25 08:10:00,75.9,70.0,30.06,NNW,332,1.0,1.0,82,0.00,,,0.00,Wunderground v.1.15,2013-08-25 13:10:00,
2013-08-25 08:15:00,76.4,70.1,30.06,NNW,342,1.0,1.0,81,0.00,,,0.00,Wunderground v.1.15,2013-08-25 13:15:00,
2013-08-25 08:25:00,77.1,70.5,30.06,NNW,345,0.0,1.0,80,0.00,,,0.00,Wunderground v.1.15,2013-08-25 13:25:00,
2013-08-25 08:30:00,77.6,70.6,30.06,NNW,332,0.0,1.0,79,0.00,,,0.00,Wunderground v.1.15,2013-08-25 13:30:00,
2013-08-25 08:40:00,78.4,71.0,30.06,NW,325,0.0,1.0,78,0.00,,,0.00,Wunderground v.1.15,2013-08-25 13:40:00,
2013-08-25 08:50:00,79.4,71.6,30.06,North,7,1.0,1.0,77,0.00,,,0.00,Wunderground v.1.15,2013-08-25 13:50:00,
2013-08-25 09:00:00,80.2,71.6,30.05,WNW,295,1.0,1.0,75,0.00,,,0.00,Wunderground v.1.15,2013-08-25 14:00:00,
2013-08-25 09:10:00,81.0,72.3,30.05,NNW,341,2.0,2.0,75,0.00,,,0.00,Wunderground v.1.15,2013-08-25 14:10:00,
2013-08-25 09:20:00,81.8,73.1,30.05,NNE,26,1.0,2.0,75,0.00,,,0.00,Wunderground v.1.15,2013-08-25 14:20:00,
2013-08-25 09:30:00,82.6,73.9,30.05,NNE,21,1.0,1.0,75,0.00,,,0.00,Wunderground v.1.15,2013-08-25 14:30:00,
2013-08-25 09:40:00,82.9,73.8,30.05,ENE,78,1.0,1.0,74,0.00,,,0.00,Wunderground v.1.15,2013-08-25 14:40:00,
2013-08-25 09:50:00,82.9,73.8,30.05,NNW,338,2.0,2.0,74,0.00,,,0.00,Wunderground v.1.15,2013-08-25 14:50:00,
2013-08-25 09:55:00,83.6,74.0,30.05,ENE,69,2.0,2.0,73,0.00,,,0.00,Wunderground v.1.15,2013-08-25 14:55:00,
2013-08-25 10:05:00,84.5,74.5,30.05,ENE,77,2.0,2.0,72,0.00,,,0.00,Wunderground v.1.15,2013-08-25 15:05:00,
2013-08-25 10:15:00,84.3,74.3,30.05,NNE,31,2.0,2.0,72,0.00,,,0.00,Wunderground v.1.15,2013-08-25 15:15:00,
2013-08-25 10:25:00,84.7,73.8,30.06,East,101,3.0,4.0,70,0.00,,,0.00,Wunderground v.1.15,2013-08-25 15:25:00,
2013-08-25 10:35:00,85.6,74.3,30.06,ESE,112,2.0,3.0,69,0.00,,,0.00,Wunderground v.1.15,2013-08-25 15:35:00,
2013-08-25 10:45:00,86.5,74.2,30.06,NW,325,2.0,2.0,67,0.00,,,0.00,Wunderground v.1.15,2013-08-25 15:45:00,
2013-08-25 10:55:00,86.7,73.5,30.07,NE,39,2.0,3.0,65,0.00,,,0.00,Wunderground v.1.15,2013-08-25 15:55:00,
2013-08-25 11:00:00,87.1,73.9,30.07,NE,52,2.0,2.0,65,0.00,,,0.00,Wunderground v.1.15,2013-08-25 16:00:00,
2013-08-25 11:10:00,88.2,73.5,30.07,SW,226,2.0,2.0,62,0.00,,,0.00,Wunderground v.1.15,2013-08-25 16:10:00,
2013-08-25 11:20:00,88.4,73.7,30.07,East,84,2.0,3.0,62,0.00,,,0.00,Wunderground v.1.15,2013-08-25 16:20:00,
2013-08-25 11:30:00,88.0,72.9,30.06,NNE,18,2.0,2.0,61,0.00,,,0.00,Wunderground v.1.15,2013-08-25 16:30:00,
2013-08-25 11:40:00,88.0,72.9,30.06,NNE,20,2.0,2.0,61,0.00,,,0.00,Wunderground v.1.15,2013-08-25 16:40:00,
2013-08-25 11:45:00,89.1,72.9,30.06,NE,46,3.0,4.0,59,0.00,,,0.00,Wunderground v.1.15,2013-08-25 16:45:00,
2013-08-25 11:55:00,90.3,71.9,30.06,WNW,298,2.0,3.0,55,0.00,,,0.00,Wunderground v.1.15,2013-08-25 16:55:00,
2013-08-25 12:05:00,89.9,71.6,30.06,East,95,3.0,4.0,55,0.00,,,0.00,Wunderground v.1.15,2013-08-25 17:05:00,
2013-08-25 12:10:00,89.6,71.8,30.06,NNW,334,3.0,3.0,56,0.00,,,0.00,Wunderground v.1.15,2013-08-25 17:10:00,
2013-08-25 12:20:00,90.0,71.7,30.05,SE,131,2.0,2.0,55,0.00,,,0.00,Wunderground v.1.15,2013-08-25 17:20:00,
2013-08-25 12:25:00,90.6,71.7,30.05,NNE,20,2.0,2.0,54,0.00,,,0.00,Wunderground v.1.15,2013-08-25 17:25:00,
2013-08-25 12:35:00,91.5,72.0,30.05,SW,233,2.0,2.0,53,0.00,,,0.00,Wunderground v.1.15,2013-08-25 17:35:00,
2013-08-25 12:45:00,92.3,71.6,30.05,North,350,2.0,8.0,51,0.00,,,0.00,Wunderground v.1.15,2013-08-25 17:45:00,
2013-08-25 12:50:00,92.4,71.1,30.04,ENE,67,3.0,3.0,50,0.00,,,0.00,Wunderground v.1.15,2013-08-25 17:50:00,
2013-08-25 13:00:00,92.5,71.7,30.04,ENE,65,3.0,4.0,51,0.00,,,0.00,Wunderground v.1.15,2013-08-25 18:00:00,
2013-08-25 13:10:00,91.7,71.0,30.04,NNW,347,3.0,3.0,51,0.00,,,0.00,Wunderground v.1.15,2013-08-25 18:10:00,
2013-08-25 13:20:00,93.5,72.1,30.04,ESE,113,3.0,3.0,50,0.00,,,0.00,Wunderground v.1.15,2013-08-25 18:20:00,
2013-08-25 13:30:00,93.0,71.6,30.04,North,354,2.0,4.0,50,0.00,,,0.00,Wunderground v.1.15,2013-08-25 18:30:00,
2013-08-25 13:35:00,92.6,71.8,30.04,East,87,2.0,4.0,51,0.00,,,0.00,Wunderground v.1.15,2013-08-25 18:35:00,
2013-08-25 13:45:00,93.2,71.2,30.04,NE,51,2.0,2.0,49,0.00,,,0.00,Wunderground v.1.15,2013-08-25 18:45:00,
2013-08-25 13:54:00,92.0,71.3,30.03,NE,37,2.0,4.0,51,0.00,,,0.00,Wunderground v.1.15,2013-08-25 18:54:00,
2013-08-25 14:00:00,92.1,71.4,30.03,ESE,107,2.0,3.0,51,0.00,,,0.00,Wunderground v.1.15,2013-08-25 19:00:00,
2013-08-25 14:10:00,93.4,70.8,30.03,ENE,77,3.0,3.0,48,0.00,,,0.00,Wunderground v.1.15,2013-08-25 19:10:00,
2013-08-25 14:20:00,94.3,71.0,30.03,NE,53,2.0,3.0,47,0.00,,,0.00,Wunderground v.1.15,2013-08-25 19:20:00,
2013-08-25 14:25:00,94.3,71.6,30.02,ESE,116,2.0,3.0,48,0.00,,,0.00,Wunderground v.1.15,2013-08-25 19:25:00,
2013-08-25 14:35:00,95.3,70.6,30.02,SE,131,2.0,4.0,45,0.00,,,0.00,Wunderground v.1.15,2013-08-25 19:35:00,
2013-08-25 14:45:00,95.9,70.5,30.02,ESE,104,2.0,2.0,44,0.00,,,0.00,Wunderground v.1.15,2013-08-25 19:45:00,
2013-08-25 14:50:00,95.6,70.9,30.02,SE,143,2.0,2.0,45,0.00,,,0.00,Wunderground v.1.15,2013-08-25 19:50:00,
2013-08-25 15:00:00,96.8,71.3,30.01,ENE,71,2.0,3.0,44,0.00,,,0.00,Wunderground v.1.15,2013-08-25 20:00:00,
2013-08-25 15:09:00,97.1,70.2,30.00,SSE,152,2.0,2.0,42,0.00,,,0.00,Wunderground v.1.15,2013-08-25 20:09:00,
2013-08-25 15:15:00,97.8,70.1,30.00,ESE,117,2.0,2.0,41,0.00,,,0.00,Wunderground v.1.15,2013-08-25 20:15:00,
2013-08-25 15:25:00,97.6,69.9,30.00,NE,49,2.0,3.0,41,0.00,,,0.00,Wunderground v.1.15,2013-08-25 20:25:00,
2013-08-25 15:34:00,97.4,69.8,30.00,ENE,71,2.0,3.0,41,0.00,,,0.00,Wunderground v.1.15,2013-08-25 20:34:00,
2013-08-25 15:40:00,96.5,69.7,30.00,ESE,115,2.0,2.0,42,0.00,,,0.00,Wunderground v.1.15,2013-08-25 20:40:00,
2013-08-25 15:50:00,97.1,69.5,29.99,SSE,168,2.0,2.0,41,0.00,,,0.00,Wunderground v.1.15,2013-08-25 20:50:00,
2013-08-25 15:55:00,97.7,70.0,29.99,East,89,2.0,2.0,41,0.00,,,0.00,Wunderground v.1.15,2013-08-25 20:55:00,
2013-08-25 16:05:00,96.9,69.3,29.99,NE,41,2.0,2.0,41,0.00,,,0.00,Wunderground v.1.15,2013-08-25 21:05:00,
2013-08-25 16:15:00,96.5,69.7,29.98,SE,124,2.0,4.0,42,0.00,,,0.00,Wunderground v.1.15,2013-08-25 21:15:00,
2013-08-25 16:25:00,97.0,70.1,29.98,ESE,113,2.0,3.0,42,0.00,,,0.00,Wunderground v.1.15,2013-08-25 21:25:00,
2013-08-25 16:35:00,96.2,69.4,29.97,ENE,61,2.0,2.0,42,0.00,,,0.00,Wunderground v.1.15,2013-08-25 21:35:00,
2013-08-25 16:40:00,96.1,69.3,29.97,NW,312,2.0,8.0,42,0.00,,,0.00,Wunderground v.1.15,2013-08-25 21:40:00,
2013-08-25 16:50:00,96.7,69.1,29.97,NNW,345,3.0,5.0,41,0.00,,,0.00,Wunderground v.1.15,2013-08-25 21:50:00,
2013-08-25 17:00:00,97.5,69.1,29.97,SE,143,2.0,2.0,40,0.00,,,0.00,Wunderground v.1.15,2013-08-25 22:00:00,
2013-08-25 17:05:00,96.8,69.9,29.97,NE,49,2.0,4.0,42,0.00,,,0.00,Wunderground v.1.15,2013-08-25 22:05:00,
2013-08-25 17:15:00,96.3,70.8,29.97,NE,41,2.0,2.0,44,0.00,,,0.00,Wunderground v.1.15,2013-08-25 22:15:00,
2013-08-25 17:25:00,97.3,71.1,29.97,SE,135,2.0,2.0,43,0.00,,,0.00,Wunderground v.1.15,2013-08-25 22:25:00,
2013-08-25 17:30:00,97.2,70.3,29.97,ENE,63,1.0,2.0,42,0.00,,,0.00,Wunderground v.1.15,2013-08-25 22:30:00,
2013-08-25 17:40:00,95.8,71.1,29.97,ESE,108,2.0,2.0,45,0.00,,,0.00,Wunderground v.1.15,2013-08-25 22:40:00,
2013-08-25 17:50:00,94.7,70.1,29.97,East,99,2.0,2.0,45,0.00,,,0.00,Wunderground v.1.15,2013-08-25 22:50:00,
2013-08-25 17:55:00,94.3,70.3,29.97,East,94,2.0,2.0,46,0.00,,,0.00,Wunderground v.1.15,2013-08-25 22:55:00,
2013-08-25 18:05:00,95.3,71.2,29.97,SSE,150,2.0,2.0,46,0.00,,,0.00,Wunderground v.1.15,2013-08-25 23:05:00,
2013-08-25 18:15:00,94.2,69.6,29.97,SE,131,1.0,1.0,45,0.00,,,0.00,Wunderground v.1.15,2013-08-25 23:15:00,
2013-08-25 18:20:00,93.6,69.7,29.97,ESE,115,1.0,1.0,46,0.00,,,0.00,Wunderground v.1.15,2013-08-25 23:20:00,
2013-08-25 18:30:00,93.9,70.0,29.96,WNW,285,1.0,1.0,46,0.00,,,0.00,Wunderground v.1.15,2013-08-25 23:30:00,
2013-08-25 18:40:00,93.8,71.1,29.97,SSE,163,2.0,2.0,48,0.00,,,0.00,Wunderground v.1.15,2013-08-25 23:40:00,
2013-08-25 18:45:00,93.6,71.6,29.97,SE,135,1.0,2.0,49,0.00,,,0.00,Wunderground v.1.15,2013-08-25 23:45:00,
2013-08-25 18:55:00,93.0,72.2,29.97,NE,46,2.0,3.0,51,0.00,,,0.00,Wunderground v.1.15,2013-08-25 23:55:00,
2013-08-25 19:05:00,92.5,71.7,29.98,SE,139,1.0,2.0,51,0.00,,,0.00,Wunderground v.1.15,2013-08-26 00:05:00,
2013-08-25 19:15:00,91.7,71.6,29.98,East,91,1.0,2.0,52,0.00,,,0.00,Wunderground v.1.15,2013-08-26 00:15:00,
2013-08-25 19:25:00,91.4,71.9,29.99,ESE,105,1.0,2.0,53,0.00,,,0.00,Wunderground v.1.15,2013-08-26 00:25:00,
2013-08-25 19:35:00,91.6,72.6,29.99,SSE,160,1.0,1.0,54,0.00,,,0.00,Wunderground v.1.15,2013-08-26 00:35:00,
2013-08-25 19:45:00,90.6,72.2,29.99,East,101,1.0,5.0,55,0.00,,,0.00,Wunderground v.1.15,2013-08-26 00:45:00,
2013-08-25 19:55:00,89.4,72.2,30.00,WSW,249,2.0,2.0,57,0.00,,,0.00,Wunderground v.1.15,2013-08-26 00:55:00,
2013-08-25 20:05:00,88.6,71.9,30.00,ESE,103,1.0,1.0,58,0.00,,,0.00,Wunderground v.1.15,2013-08-26 01:05:00,
2013-08-25 20:15:00,88.0,71.9,30.00,SE,136,1.0,1.0,59,0.00,,,0.00,Wunderground v.1.15,2013-08-26 01:15:00,
2013-08-25 20:25:00,87.5,71.9,30.00,SSE,148,1.0,1.0,60,0.00,,,0.00,Wunderground v.1.15,2013-08-26 01:25:00,
2013-08-25 20:35:00,87.1,72.0,30.01,SE,135,2.0,2.0,61,0.00,,,0.00,Wunderground v.1.15,2013-08-26 01:35:00,
2013-08-25 20:45:00,86.8,72.2,30.02,East,96,1.0,1.0,62,0.00,,,0.00,Wunderground v.1.15,2013-08-26 01:45:00,
2013-08-25 20:50:00,86.7,72.1,30.02,ESE,123,1.0,1.0,62,0.00,,,0.00,Wunderground v.1.15,2013-08-26 01:50:00,
2013-08-25 21:00:00,86.4,71.8,30.03,East,91,1.0,1.0,62,0.00,,,0.00,Wunderground v.1.15,2013-08-26 02:00:00,
2013-08-25 21:10:00,85.9,71.8,30.03,ESE,112,1.0,2.0,63,0.00,,,0.00,Wunderground v.1.15,2013-08-26 02:10:00,
2013-08-25 21:20:00,85.5,72.4,30.03,WSW,240,1.0,1.0,65,0.00,,,0.00,Wunderground v.1.15,2013-08-26 02:20:00,
2013-08-25 21:30:00,85.0,71.9,30.04,East,83,1.0,2.0,65,0.00,,,0.00,Wunderground v.1.15,2013-08-26 02:30:00,
2013-08-25 21:40:00,84.7,72.1,30.04,SE,140,1.0,1.0,66,0.00,,,0.00,Wunderground v.1.15,2013-08-26 02:40:00,
2013-08-25 21:50:00,84.4,72.2,30.05,North,349,1.0,1.0,67,0.00,,,0.00,Wunderground v.1.15,2013-08-26 02:50:00,
2013-08-25 22:00:00,84.1,72.4,30.05,WSW,245,1.0,1.0,68,0.00,,,0.00,Wunderground v.1.15,2013-08-26 03:00:00,
2013-08-25 22:10:00,84.1,72.8,30.06,ESE,113,1.0,1.0,69,0.00,,,0.00,Wunderground v.1.15,2013-08-26 03:10:00,
2013-08-25 22:20:00,83.8,72.5,30.06,SE,131,1.0,1.0,69,0.00,,,0.00,Wunderground v.1.15,2013-08-26 03:20:00,
2013-08-25 22:30:00,83.5,73.1,30.06,SE,134,1.0,1.0,71,0.00,,,0.00,Wunderground v.1.15,2013-08-26 03:30:00,
2013-08-25 22:40:00,83.1,73.1,30.05,SE,129,1.0,1.0,72,0.00,,,0.00,Wunderground v.1.15,2013-08-26 03:40:00,
2013-08-25 22:45:00,82.8,72.8,30.05,SE,128,0.0,1.0,72,0.00,,,0.00,Wunderground v.1.15,2013-08-26 03:45:00,
2013-08-25 22:55:00,82.5,73.0,30.05,SE,145,0.0,0.0,73,0.00,,,0.00,Wunderground v.1.15,2013-08-26 03:55:00,
2013-08-25 23:05:00,82.2,73.1,30.06,SE,145,0.0,0.0,74,0.00,,,0.00,Wunderground v.1.15,2013-08-26 04:05:00,
2013-08-25 23:10:00,82.0,73.3,30.06,ESE,121,0.0,0.0,75,0.00,,,0.00,Wunderground v.1.15,2013-08-26 04:10:00,
2013-08-25 23:20:00,81.9,73.2,30.06,ESE,123,1.0,1.0,75,0.00,,,0.00,Wunderground v.1.15,2013-08-26 04:20:00,
2013-08-25 23:29:00,81.6,73.3,30.06,SE,130,0.0,0.0,76,0.00,,,0.00,Wunderground v.1.15,2013-08-26 04:29:00,
2013-08-25 23:35:00,81.4,72.7,30.06,East,89,0.0,1.0,75,0.00,,,0.00,Wunderground v.1.15,2013-08-26 04:35:00,
2013-08-25 23:40:00,81.3,72.6,30.06,SSW,197,1.0,1.0,75,0.00,,,0.00,Wunderground v.1.15,2013-08-26 04:40:00,
2013-08-25 23:50:00,81.0,72.3,30.06,SE,129,0.0,0.0,75,0.00,,,0.00,Wunderground v.1.15,2013-08-26 04:50:00,
2013-08-25 23:55:00,80.9,72.2,30.06,SSE,148,0.0,1.0,75,0.00,,,0.00,Wunderground v.1.15,2013-08-26 04:55:00,